TimeCST,TemperatureF,Dew PointF,Humidity,Sea Level PressureIn,VisibilityMPH,Wind Direction,Wind SpeedMPH,Gust SpeedMPH,PrecipitationIn,Events,Conditions,WindDirDegrees,DateUTC
6:00 AM,83,76,75,29.85,16,East,13.8,,,,Scattered Clouds,90,2013-10-06 12:00:00
6:00 AM,84.2,77.0,79,29.86,6.2,East,13.8,-,N/A,,Mostly Cloudy,90,2013-10-06 12:00:00
7:00 AM,86.0,77.0,74,29.86,6.2,East,16.1,-,N/A,,Mostly Cloudy,100,2013-10-06 13:00:00
8:00 AM,87.8,77.0,70,29.86,6.2,East,13.8,-,N/A,,Mostly Cloudy,90,2013-10-06 14:00:00
9:00 AM,88,76,60,29.89,16,East,12.7,,,,Scattered Clouds,90,2013-10-06 15:00:00
9:00 AM,87.8,77.0,70,29.89,6.2,East,12.7,-,N/A,,Scattered Clouds,90,2013-10-06 15:00:00
10:00 AM,89.6,77.0,66,29.89,6.2,East,12.7,-,N/A,,Scattered Clouds,100,2013-10-06 16:00:00
11:00 AM,89.6,77.0,66,29.89,6.2,East,11.5,-,N/A,,Scattered Clouds,100,2013-10-06 17:00:00
12:00 PM,90,76,55,29.86,12,East,11.5,,,,Haze,90,2013-10-06 18:00:00
12:00 PM,89.6,75.2,62,29.86,6.2,East,11.5,-,N/A,,Scattered Clouds,90,2013-10-06 18:00:00
1:00 PM,89.6,75.2,62,29.83,6.2,East,12.7,-,N/A,,Scattered Clouds,80,2013-10-06 19:00:00
2:00 PM,89.6,75.2,62,29.80,6.2,East,13.8,-,N/A,,Scattered Clouds,90,2013-10-06 20:00:00
3:00 PM,90,76,55,29.81,10,East,12.7,,,,Haze,90,2013-10-06 21:00:00
3:00 PM,89.6,75.2,62,29.80,6.2,East,12.7,-,N/A,,Partly Cloudy,90,2013-10-06 21:00:00
4:00 PM,87.8,75.2,66,29.77,6.2,East,11.5,-,N/A,,Scattered Clouds,90,2013-10-06 22:00:00
5:00 PM,86.0,77.0,74,29.80,6.2,East,11.5,-,N/A,,Scattered Clouds,80,2013-10-06 23:00:00
6:00 PM,85,75,66,29.82,9,ENE,10.4,,,,Haze,70,2013-10-07 00:00:00
6:00 PM,84.2,75.2,74,29.80,6.2,ENE,10.4,-,N/A,,Mostly Cloudy,70,2013-10-07 00:00:00
7:00 PM,84.2,75.2,74,29.83,6.2,NE,4.6,-,N/A,,Scattered Clouds,50,2013-10-07 01:00:00
8:00 PM,84.2,77.0,79,29.86,6.2,East,13.8,-,N/A,,Scattered Clouds,90,2013-10-07 02:00:00